Regional Weather Roundup
Issued by NWS Newport/Morehead, NC

Current Version | Previous Version | Text Only | Print | Product List | Glossary Off
Versions: 1 2 3 4 5 6 7 8 9 10 11 12 13 14 15 16 17 18 19 20 21 22 23 24 25 26 27 28 29 30 31 32 33 34 35 36 37 38 39 40 41 42 43 44 45 46 47 48 49 50
000 ASUS42 KMHX 220314 RWRMHX WEATHER ROUNDUP FOR EASTERN NORTH CAROLINA NATIONAL WEATHER SERVICE NEWPORT/MOREHEAD CITY NC 1100 PM EDT MON AUG 21 2017 NOTE: "FAIR" INDICATES FEW OR NO CLOUDS BELOW 12,000 FEET WITH NO SIGNIFICANT WEATHER AND/OR OBSTRUCTIONS TO VISIBILITY NCZ015>017-031-032-045>047-102-103-220400- NORTH COAST CITY SKY/WX TMP DP RH WIND PRES REMARKS EDENTON CLEAR 81 76 85 CALM 30.18S ELIZABETH CITY CLEAR 77 76 96 S3 30.17F KITTY HAWK CLEAR 76 73 88 CALM 30.17S MANTEO CLEAR 78 74 86 S5 30.18S $$ NCZ045>047-081-094-103-104-220400- CENTRAL COAST CITY SKY/WX TMP DP RH WIND PRES REMARKS FRISCO CLEAR 77 75 93 CALM 30.18S $$ NCZ095-097-098-100-101-220400- SOUTHERN COAST CITY SKY/WX TMP DP RH WIND PRES REMARKS BEAUFORT CLOUDY 77 77 100 CALM 30.17S CEDAR ISLAND NOT AVBL JACKSONVILLE CLEAR 77 77 100 CALM 30.16F PINEY ISLAND CLEAR N/A N/A N/A CALM 30.17F WILMINGTON PTCLDY 79 77 94 CALM 30.16S $$ NCZ011>013-027>030-043-044-078>080-089-090>093-098-220400- COASTAL PLAIN CITY SKY/WX TMP DP RH WIND PRES REMARKS AHOSKIE N/A 73 73 99 CALM 30.18S FOG CLINTON CLEAR 76 76 99 CALM 30.18S ELIZABETHTOWN NOT AVBL GOLDSBORO CLEAR 79 73 80 VRB2 30.18R GREENVILLE CLEAR 77 73 88 CALM 30.19S HAVELOCK CLEAR 77 74 90 CALM 30.18S KENANSVILLE CLEAR 73 73 100 CALM 30.18S KINSTON CLEAR 76 73 93 CALM 30.18S NEW BERN CLEAR 75 75 100 CALM 30.18F RICHLANDS CLEAR 75 74 96 CALM 30.18S ROCKY MOUNT CLEAR 74 74 100 CALM 30.17S WASHINGTON CLEAR 76 74 95 CALM 30.18S WHITEVILLE PTCLDY 78 76 96 CALM 30.17S $$ AMZ130-135-150-152-154-156-158-170-250-252-270-ANZ085-086-088-633-658-670-220400- MARINE OBSERVATIONS STATION/POSITION TIME TEMP WIND PRES WAVE SWELL AIR SEA DIR/SP/G HT/PER HT/PER (UTC) (F) (DEG/KT/KT) (MB) (FT/S) (FT/S) CHESAPEAKE LIGHT NOT AVBL 64 E VA BEACH 0250 79 80 180/ 4/ 4 1022.5 2/ 7 2/ 7 DUCK 0236 81 75 160/ 8/ 10 1021.3 2 E DUCK 0300 81 N/A 2/10 2/11 OREGON INLET 0236 78 85 140/ 3/ 5 1021.7 13E OREGON INLT 0248 80 N/A 2/ 8 2/ 8 HATTERAS CG 0236 81 82 140/ 4/ 5 1021.8 DIAMOND BUOY 0250 83 84 160/ 4/ 6 1021.6 2/ 9 2/ 9 CAPE LOOKOUT 0300 81 150/ 4/ 5 1021.3 BEAUFORT LAB 0236 81 81 130/ 3/ 4 1021.1 30 SE NEW RVR IN 0208 80 84 200/ 2/ 4 1021.7 30 SE NEW RVR IN 0243 84 N/A 3/10 27 SE WRIGHTSVLE 0208 83 84 180/ 4/ 8 1021.4 5 SE WRIGHTSVLE 0208 83 83 210/ 6/ 10 1021.1 225 S CAPE HAT 0250 83 84 130/ 6/ 8 1022.1 4/12 3/12 41 SE CHARLESTON 0300 82 85 160/ 6/ 8 1020.6 $$

USA.gov is the U.S. government's official web portal to all federal, state and local government web resources and services.